Regional Weather Roundup
Issued by NWS Grand Forks, ND

Home | Current Version | Previous Version | Graphics & Text | Print | Product List | Glossary On
Versions: 1 2 3 4 5 6 7 8 9 10 11 12 13 14 15 16 17 18 19 20 21 22 23 24 25 26 27 28 29 30 31 32 33 34 35 36 37 38 39 40 41 42 43 44 45 46 47 48 49 50
000
ASUS43 KFGF 211010
RWRFGF
PRAIRIE TO PINES  WEATHER ROUNDUP
NATIONAL WEATHER SERVICE EASTERN NORTH DAKOTA/GRAND FORKS ND
500 AM CDT MON APR 21 2014

 **SATELLITE DATA USED TO AUGMENT SKY COVER AT AUTOMATED STATIONS**
 *****  WEATHER ACROSS EASTERN NORTH DAKOTA  *****

CITY           SKY/WX    TMP DP  RH WIND       PRES   REMARKS
GRAND FORKS    CLEAR     45  36  70 W16       29.93R
GRAND FRKS AFB CLEAR     46  37  72 NW15      29.95R
GRAND FRKS NWS   N/A     45 N/A N/A W14         N/A
DEVILS LAKE    MOCLDY    39  32  75 N20       29.98R
FARGO          CLEAR     45  34  65 W10       29.97R
WAHPETON ARPT  SUNNY     41  32  70 NW6       29.98S
$$

 ***** WEATHER ACROSS CENTRAL AND WESTERN NORTH DAKOTA  *****

CITY           SKY/WX    TMP DP  RH WIND       PRES   REMARKS
BISMARCK       CLEAR     43  31  62 NW9       30.09R
MINOT          CLOUDY    42  37  82 NW13      30.07R
JAMESTOWN      CLEAR     44  33  65 NW16      30.01R
MINOT AFB      CLOUDY    41  38  89 N13       30.06R
GARRISON         N/A     36  31  82 W10       30.09R
WILLISTON      PTCLDY    38  34  85 NW8       30.13R
DICKINSON      PTCLDY    33  25  72 NW10      30.12R WCI  25
HETTINGER      CLEAR     32  23  69 NW5       30.16R
$$

 *****  OTHER AIRPORT OBSERVATIONS IN OUR AREA  *****

CITY           SKY/WX    TMP DP  RH WIND       PRES   REMARKS
WALHALLA       FAIR      36  36 100 NW16      29.99R
GRAFTON AIRPOR FAIR      37  36  93 N16       29.96R
VALLEY CITY AR MIX PCPN  45  34  65 NW18      30.00R
CANDO          CLOUDY    37  32  81 N14       30.02R
CAVALIER APRT  CLOUDY    37  34  87 NW21G28   29.97R
GWINNER        SUNNY     48  32  53 W15       30.03R
ROLLA          CLOUDY    36  36 100 N21G30    30.02R
 ***** THE ABOVE OBSERVATIONS ARE NON NWS ARE NOT QUALITY
       CONTROLLED AND MAY MIS-REPORT RAIN FOR SNOW...
$$

  *****  WEATHER ACROSS NORTHERN MINNESOTA  *****

CITY           SKY/WX    TMP DP  RH WIND       PRES   REMARKS
FLAG ISLAND    CLEAR     43  36  75 W16G25    29.81R
WARROAD        MOCLDY    45  39  81 W15       29.84R
ROSEAU         MOCLDY    41  36  81 W12G21    29.87R
HALLOCK        CLOUDY    37  34  87 NW18      29.94R
THF RVR FALLS  CLEAR     46  34  61 W17       29.90R
BAUDETTE       PTCLDY    47  37  68 VRB3      29.83R
WASKISH        PTCLDY    52  37  58 SW12G20   29.85S
CROOKSTON      CLEAR     45  36  70 W9        29.94R
$$
  *****  WEATHER ACROSS CENTRAL AND WEST MINNESOTA  *****

CITY           SKY/WX    TMP DP  RH WIND       PRES   REMARKS
FOSSTON        PTCLDY    43  34  70 SW9       29.91S
BEMIDJI        MOCLDY    51  33  49 SW8       29.90R
PARK RAPIDS    CLOUDY    45  38  76 W6        29.92R
ELBOW LAKE     FAIR      45  35  68 W8        29.97R
WADENA         MOCLDY    48  34  57 W7        29.94S
DETROIT LAKES  CLEAR     52  34  50 W9        29.96R
MOORHEAD       NOT AVBL
FERGUS FALLS   PTCLDY    45  32  61 NW8       29.95R
MORRIS MN      CLEAR     50  36  57 NW12      29.95R
STAPLES        CLOUDY    48  36  61 W3        29.93F
$$
  *****  WEATHER ELSEWHERE ACROSS MINNESOTA  *****

CITY           SKY/WX    TMP DP  RH WIND       PRES   REMARKS
DULUTH         MOCLDY    44  28  53 SW3       29.89R
INTRNTL FALLS  MOCLDY    48  33  56 SW6       29.81F
ELY            MOCLDY    45  27  49 W9        29.89R
CLOQUET        PTCLDY    36  28  75 W3        29.90R
WHEATON        CLEAR     50  39  66 W7        30.00R
BRAINERD       CLEAR     58  32  37 W9        29.93F
HIBBING        PTCLDY    36  30  79 CALM      29.89F
ALEXANDRIA     CLOUDY    55  35  47 NW6       29.96R
SAINT CLOUD    MOCLDY    54  39  57 NW8       29.91R
MINNEAPOLIS    LGT RAIN  58  57  97 S7        29.90R FOG
$$

  *****  WEATHER ACROSS SOUTH DAKOTA  *****

CITY           SKY/WX    TMP DP  RH WIND       PRES   REMARKS
SIOUX FALLS    CLOUDY    57  48  72 N18G25    29.92R
BROOKINGS      NOT AVBL
WATERTOWN      CLEAR     44  34  67 N9        30.00R
HURON          CLEAR     40  32  73 NW9       30.03R
SISSETON         N/A     46  33  60 NW10      29.99R
ABERDEEN       CLEAR     41  30  65 NW10      30.05R
MITCHELL       PTCLDY    51  35  54 N15       30.02R
PIERRE         CLEAR     42  27  55 NW10      30.11R
MOBRIDGE       CLEAR     36  25  64 CALM      30.08R
RAPID CITY     CLEAR     35  21  56 NW9       30.20R
$$

  *****  SOME WEATHER IN NEARBY STATES *****

CITY           SKY/WX    TMP DP  RH WIND       PRES   REMARKS
GLASGOW MT     PTCLDY    37  27  67 CALM      30.16R
GREAT FALLS MT FAIR      31  20  63 SW9       30.19S WCI  23
CHEYENNE WY    CLEAR     40  28  62 NW7       30.27R
SCOTTSBLUFF NE MOCLDY    49  25  39 CALM      30.24R
OMAHA NE       LGT RAIN  61  58  90 SE5       29.93F
DES MOINES IA  CLOUDY    63  54  72 S3        29.95S
DAVENPORT IA   MOCLDY    56  44  64 S5        29.96F
CHICAGO IL     CLOUDY    61  40  45 SW7       29.97F
EAU CLAIRE WI  CLOUDY    51  51 100 CALM      29.91S FOG
LA CROSSE WI   CLOUDY    56  53  90 VRB5      29.91S
$$

  *****  SOME NATIONAL WEATHER *****

CITY           SKY/WX    TMP DP  RH WIND       PRES   REMARKS
LA GUARDIA NY  CLEAR     41  32  70 NE3       30.24R
RALEIGH NC     CLEAR     42  32  67 N3        30.16S
ATLANTA GA     PTCLDY    55  39  54 NE5       30.15S
NEW ORLEANS LA PTCLDY    61  57  87 CALM      30.13S
OKLAHOMA CITY  LGT RAIN  60  58  92 S6        29.96F
ALBUQUERQUE NM PTCLDY    53  35  50 SE5       30.17R
SALT LAKE CITY FAIR      47  31  53 CALM      30.22R
LOS ANGELES CA FAIR      60  54  80 CALM      30.03F
BOISE ID       FAIR      44  28  53 SE10      30.16F
SEATTLE WA     CLOUDY    47  41  80 SE5       30.10F
$$

*** WEATHER ACROSS MANITOBA...SASKATCHEWAN AND ONTARIO ***
                ***ONTARIO***

CITY           SKY/WX    TMP DP  RH WIND       PRES   REMARKS
GERALDTON      PTCLDY    23  21  93 CALM      29.93F
THUNDER BAY    PTCLDY    28  27  93 VRB2      29.92F
SIOUX LOOKOUT  LGT RAIN  37  32  81 E7        29.78F
TORONTO        CLOUDY    45  32  61 S2        30.05S
BIG TROUT LK   CLOUDY    30  27  86 N5        29.93F
PICKLE LAKE    NOT AVBL
DRYDEN         MOCLDY    39  34  81 S10       29.75F
KENORA         PTCLDY    41  34  75 W15G23    29.77R
$$
                *** MANITOBA***

CITY           SKY/WX    TMP DP  RH WIND       PRES   REMARKS
BRANDON        PTCLDY    34  30  86 NW13G18   30.07R WCI  25
DAUPHIN        CLEAR     32  32 100 W8        30.08R WCI  25
ISLAND LAKE    NOT AVBL
PILOT MOUND      N/A     34  32  93 N15         N/A  WCI  24
THE PAS        CLOUDY    30  28  93 CALM      30.06R
THOMPSON       PTCLDY    18  18 100 NW3       30.02R
WINNIPEG       LGT RAIN  34  32  93 NW17      29.97R WCI  23
LYNN LAKE      CLEAR     19  14  79 W6        30.01R WCI  11
CHURCHILL      FOG        9   7  92 W6        30.08R VSB 1/4 WCI  -1
GILLAM         MOCLDY    16  16 100 CALM      30.05R FOG
$$
                ***SASKATCHEWAN***

CITY           SKY/WX    TMP DP  RH WIND       PRES   REMARKS
ESTEVAN        NOT AVBL
KINDERSLEY     FOG       28  28 100 S8        30.13R VSB 1/4 WCI  20
LLOYDMINSTER   CLEAR     36  34  93 SW10      30.08R
PRINCE ALBERT  PTCLDY    32  32 100 SW5       30.09R
REGINA         CLOUDY    34  34 100 SW5       30.16R
YORKTON        CLEAR     27  25  93 W6        30.11R WCI  20
N. BATTLEFORD  FOG       30  30 100 CALM      30.13S VSB 5/8
LA RONGE       MOCLDY    32  32 100 SW6       30.02S
SASKATOON      FOG       28  28 100 SW9       30.15R VSB 1/8 WCI  20
SWIFT CURRENT  CLEAR     30  30 100 SW12      30.13R WCI  21
$$
NOTE: THESE ARE AUTOMATED STATIONS WITH LIMITED QUALITY CONTROL
      "FAIR" INDICATES FEW OR NO CLOUDS BELOW 12,000 FEET WITH NO
      SIGNIFICANT WEATHER AND/OR OBSTRUCTIONS TO VISIBILITY.
      SKY/WX - SKY CONDITION AND SIGNIFICANT WEATHER.
      TMP - AIR TEMPERATURE.    DP   - DEWPOINT TEMPERATURE.
      RH  - RELATIVE HUMIDITY.  PRES - PRESSURE.
      HX  - HEAT INDEX.         WCI  - WIND CHILL INDEX.
$



USA.gov is the U.S. government's official web portal to all federal, state and local government web resources and services.